Flag Weather past 2 weeks in Charlottetown, Pr.Edward I, Canada

Now
28 °F

Scattered clouds.


Feels Like: 16 °F
Forecast: 26 / 33 °F
Wind: 17 mph from West

Location: Charlottetown

Current Time: Nov 21, 2014 at 2:00:37 PM

Latest Report: Nov 21, 2014 at 1:00 PM


Visibility: 15 mi

Pressure: 29.71 "Hg

Humidity: 69%

Dew point: 19 °F

Location of CharlottetownLocation

Historic Weather in Charlottetown — Graph

°F

Charlottetown temperature yesterday

Maximum temperature yesterday: 39 °F (at 3:00 PM)
Minimum temperature yesterday: 21 °F (at 4:00 AM)
Average temperature yesterday: 31 °F

Past Weeks' High & Low Weather Summary

 TemperatureHumidityPressure
High57 °F (Nov 7, 4:00 PM)100% (Nov 7, 4:00 AM)30.31 "Hg (Nov 7, 4:00 AM)
Low21 °F (Nov 15, 11:00 PM)43% (Nov 18, 11:00 PM)29.01 "Hg (Nov 7, 8:00 PM)
Average37 °F80%29.85 "Hg
* Reported Nov 6 1:00 PM — Nov 21 1:00 PM, Charlottetown, Weather by CustomWeather, © 2014

Note: Actual official high and low records may vary slightly from our data, if they occured in-between our weather recording intervals... More about our weather records

Advertising

Charlottetown weather history for previous 24 hours

 ConditionsComfort  
Time TempWeatherWind HumidityBarometerVisibility
1:00 PM
Nov 21
28 °FScattered clouds.17 mph69%29.71 "Hg15 mi
12:00 PM28 °FScattered clouds.16 mph69%29.71 "Hg15 mi
11:00 AM28 °FScattered clouds.15 mph69%29.72 "Hg15 mi
10:00 AM27 °FScattered clouds.13 mph74%29.72 "Hg15 mi
9:00 AM27 °FScattered clouds.15 mph80%29.71 "Hg15 mi
8:00 AM25 °FPassing clouds.7 mph86%29.70 "Hg15 mi
7:00 AM27 °FPassing clouds.10 mph80%29.69 "Hg15 mi
6:00 AM27 °FPassing clouds.7 mph86%29.69 "Hg15 mi
5:00 AM28 °FPartly cloudy.12 mph86%29.68 "Hg15 mi
4:00 AM30 °FPassing clouds.7 mph86%29.67 "Hg15 mi
3:00 AM32 °FPassing clouds.8 mph93%29.67 "Hg15 mi
2:00 AM32 °FPassing clouds.6 mph100%29.66 "Hg15 mi
1:00 AM32 °FMostly cloudy.5 mph100%29.67 "Hg15 mi
12:00 AM32 °FLow clouds.No wind100%29.67 "Hg15 mi
11:00 PM
Nov 20
32 °FSnow flurries. Mostly cloudy.7 mph100%29.69 "Hg12 mi
10:51 PM32 °FSnow flurries. Mostly cloudy.8 mph100%29.69 "Hg3 mi
10:00 PM36 °FSprinkles. Mostly cloudy.2 mph100%29.67 "Hg12 mi
9:00 PM36 °FSprinkles. Mostly cloudy.3 mph100%29.70 "Hg12 mi
8:00 PM36 °FSprinkles. Mostly cloudy.3 mph100%29.73 "Hg12 mi
7:00 PM37 °FSprinkles. Mostly cloudy.3 mph93%29.75 "Hg12 mi
6:00 PM37 °FSprinkles. Overcast.3 mph93%29.78 "Hg12 mi
5:00 PM39 °FSprinkles. Overcast.3 mph87%29.79 "Hg12 mi
4:47 PM39 °FSprinkles. Mostly cloudy.2 mph87%29.78 "Hg12 mi
4:00 PM39 °FScattered showers. Mostly cloudy.9 mph87%29.79 "Hg15 mi
3:00 PM39 °FSprinkles. Overcast.16 mph87%29.80 "Hg15 mi
2:00 PM37 °FSprinkles. Overcast.14 mph93%29.82 "Hg8 mi
Weather by CustomWeather, © 2014

See weather overviewHow to use our weather pages